Fort Covington, New York, United States (12937)
Lat: 44.99N, Lon: 74.5W
Wx Zone: NYZ027
Local Info
Past Weather Observations for Wednesday, August 27, 2014

NOTE: This archive is for the closest National Weather Service station to Fort Covington. Information may differ from the station used for current weather conditions.

Click here for Long-term Archive

Time Weather Temperature Dewpoint Humidity Pressure Winds Precip Visibility
23:53
Overcast
64°F / 18°C 59°F / 15°C 83% 29.95 in
(1014 mb)
NNW 5.8 mph
(NNW 9 kph)
- 10SM
22:53
Overcast
66°F / 19°C 57°F / 14°C 73% 29.98 in
(1015 mb)
NW 5.8 mph
(NW 9 kph)
- 10SM
21:53
Mostly Cloudy
64°F / 18°C 59°F / 15°C 83% 29.98 in
(1015 mb)
W 4.6 mph
(W 7 kph)
- 10SM
20:53
Partly Cloudy
66°F / 19°C 59°F / 15°C 78% 29.95 in
(1014 mb)
W 4.6 mph
(W 7 kph)
- 10SM
19:53
Mostly Cloudy
66°F / 19°C 61°F / 16°C 83% 29.95 in
(1014 mb)
WNW 3.5 mph
(WNW 6 kph)
- 10SM
18:53
Partly Cloudy
68°F / 20°C 61°F / 16°C 78% 29.95 in
(1014 mb)
WNW 4.6 mph
(WNW 7 kph)
- 10SM
17:53
Partly Cloudy
70°F / 21°C 63°F / 17°C 78% 29.95 in
(1014 mb)
W 3.5 mph
(W 6 kph)
0.00 in
(0.00 mm)
10SM
16:53
Partly Cloudy
72°F / 22°C 59°F / 15°C 65% 29.95 in
(1014 mb)
NW 6.9 mph
(NW 11 kph)
- 10SM
15:53
Clear
73°F / 23°C 59°F / 15°C 61% 29.95 in
(1014 mb)
NW 6.9 mph
(NW 11 kph)
- 10SM
14:53
Partly Cloudy
75°F / 24°C 61°F / 16°C 61% 29.95 in
(1014 mb)
W 9.2 mph
(W 15 kph)
- 10SM
13:53
Partly Cloudy
77°F / 25°C 61°F / 16°C 57% 29.95 in
(1014 mb)
SSW 9.2 mph
(SSW 15 kph)
- 10SM
12:53
Partly Cloudy
77°F / 25°C 61°F / 16°C 57% 29.95 in
(1014 mb)
NW 10.4 mph
(NW 17 kph)
- 10SM
11:53
Partly Cloudy
75°F / 24°C 63°F / 17°C 65% 29.95 in
(1014 mb)
SW 4.6 mph
(SW 7 kph)
- 10SM
10:53
Partly Cloudy
75°F / 24°C 61°F / 16°C 61% 29.98 in
(1015 mb)
WNW 9.2 mph
(WNW 15 kph)
- 10SM
09:53
Clear
73°F / 23°C 61°F / 16°C 65% 29.98 in
(1015 mb)
NNW 6.9 mph
(NNW 11 kph)
- 10SM
08:53
Mostly Cloudy
72°F / 22°C 61°F / 16°C 69% 29.98 in
(1015 mb)
NW 8.1 mph
(NW 13 kph)
- 10SM
07:53
Overcast
70°F / 21°C 61°F / 16°C 73% 29.98 in
(1015 mb)
NW 6.9 mph
(NW 11 kph)
- 10SM
06:53
Clear
68°F / 20°C 63°F / 17°C 83% 29.98 in
(1015 mb)
W 6.9 mph
(W 11 kph)
- 10SM
05:53
Clear
66°F / 19°C 63°F / 17°C 88% 29.98 in
(1015 mb)
SSW 4.6 mph
(SSW 7 kph)
- 10SM
04:53
Partly Cloudy
66°F / 19°C 63°F / 17°C 88% 29.98 in
(1015 mb)
SSW 6.9 mph
(SSW 11 kph)
- 10SM
03:53
Clear
68°F / 20°C 64°F / 18°C 88% 29.95 in
(1014 mb)
SW 6.9 mph
(SW 11 kph)
- 10SM
02:53
Partly Cloudy
70°F / 21°C 64°F / 18°C 83% 29.95 in
(1014 mb)
SSW 4.6 mph
(SSW 7 kph)
- 10SM
01:53
Mostly Cloudy
73°F / 23°C 63°F / 17°C 69% 29.92 in
(1013 mb)
SW 11.5 mph
(SW 19 kph)
- 10SM
00:53
Mostly Cloudy
73°F / 23°C 63°F / 17°C 69% 29.92 in
(1013 mb)
SW 10.4 mph
(SW 17 kph)
0.00 in
(0.00 mm)
10SM
Time Weather Temperature Dewpoint Humidity Pressure Winds Precip Visibility


Weather for websites

WeatherForYou.com, LLC is not responsible for any damages or problems caused by this service. Current weather conditions are obtained from the closest station including government and personal stations which may have varying degrees of accuracy. Weather forecasts are derived from the NOAA NDFD. Like all things, this site belongs to Jesus Christ... He just trusts me to maintain it. If you have any questions or comments email webmaster@weatherforyou.com

Copyright © 2014, WeatherForYou.com LLC. All rights reserved.